�v������,���r���O(���x),�����t���O,���r���O(���x),�����t���O,��1(���x),�����t���O,��2���x),�����t���O,�������x,�����t���O,�C�ۑ�(���x),�����t���O,�C�ۑ�(���x),�����t���O
10/1/2002 0:00,25.1,0,79.9,0,23.2,0,24.2,0,22.3,0,18.4,0,96.8,0
10/1/2002 0:15,25.2,0,79.8,0,23.3,0,24.2,0,22.3,0,18.4,0,96.8,0
10/1/2002 0:30,25.2,0,79.8,0,23.2,0,24.2,0,22.3,0,18.4,0,96.8,0
10/1/2002 0:45,25.2,0,79.3,0,23.2,0,24.2,0,22.4,0,18.4,0,96.8,0
10/1/2002 1:00,25,0,72.9,0,23.2,0,24.2,0,22.5,0,18.4,0,96.8,0
10/1/2002 1:15,24.8,0,73.7,0,23.3,0,24.2,0,22.5,0,18.4,0,96.8,0
10/1/2002 1:30,24.7,0,73.5,0,23.3,0,24.2,0,22.5,0,18.5,0,96.8,0
10/1/2002 1:45,24.5,0,73.4,0,23.4,0,24.2,0,22.5,0,18.5,0,96.8,0
10/1/2002 2:00,24.4,0,73.4,0,23.4,0,24.2,0,22.6,0,18.6,0,96.8,0
10/1/2002 2:15,24.3,0,73.4,0,23.5,0,24.2,0,22.6,0,18.6,0,96.8,0
10/1/2002 2:30,24.2,0,73.6,0,23.5,0,24.2,0,22.6,0,18.6,0,96.8,0
10/1/2002 2:45,24.1,0,73.6,0,23.6,0,24.1,0,22.6,0,18.6,0,96.8,0
10/1/2002 3:00,24,0,73.9,0,23.7,0,24.1,0,22.6,0,18.6,0,96.8,0
10/1/2002 3:15,23.9,0,74,0,23.8,0,24.1,0,22.6,0,18.6,0,96.8,0
10/1/2002 3:30,23.8,0,74.2,0,23.8,0,24.1,0,22.6,0,18.5,0,96.8,0
10/1/2002 3:45,23.7,0,74.3,0,23.9,0,24.1,0,22.6,0,18.5,0,96.8,0
10/1/2002 4:00,23.6,0,74.3,0,23.9,0,24,0,22.6,0,18.5,0,96.8,0
10/1/2002 4:15,23.6,0,74.3,0,24,0,24,0,22.6,0,18.5,0,96.8,0
10/1/2002 4:30,23.5,0,74.4,0,24,0,24,0,22.7,0,18.6,0,96.8,0
10/1/2002 4:45,23.5,0,75.4,0,24,0,24,0,22.7,0,18.6,0,96.8,0
10/1/2002 5:00,23.5,0,74.9,0,24.1,0,24,0,22.7,0,18.7,0,96.8,0
10/1/2002 5:15,23.5,0,76,0,24.1,0,24,0,22.7,0,18.7,0,96.8,0
10/1/2002 5:30,23.5,0,77,0,24.1,0,24.1,0,22.7,0,18.7,0,96.8,0
10/1/2002 5:45,23.6,0,78.2,0,24.2,0,24.1,0,22.7,0,18.8,0,96.8,0
10/1/2002 6:00,23.6,0,77.4,0,24.2,0,24.1,0,22.7,0,18.8,0,96.8,0
10/1/2002 6:15,23.6,0,76.9,0,24.2,0,24,0,22.6,0,18.8,0,96.8,0
10/1/2002 6:30,23.6,0,76,0,24.2,0,23.9,0,22.4,0,18.8,0,96.8,0
10/1/2002 6:45,23.6,0,76.4,0,24.1,0,23.9,0,22.4,0,18.9,0,96.8,0
10/1/2002 7:00,23.6,0,76.1,0,24.1,0,23.8,0,22.4,0,18.9,0,96.8,0
10/1/2002 7:15,23.6,0,75.8,0,24,0,23.9,0,22.4,0,19,0,96.8,0
10/1/2002 7:30,23.5,0,75.5,0,24,0,23.9,0,22.4,0,19.1,0,96.8,0
10/1/2002 7:45,23.6,0,76.6,0,23.9,0,23.9,0,22.5,0,19.2,0,96.8,0
10/1/2002 8:00,23.6,0,76.6,0,23.9,0,23.9,0,22.5,0,19.3,0,96.8,0
10/1/2002 8:15,23.7,0,77.5,0,23.8,0,23.9,0,22.5,0,19.6,0,96.6,0
10/1/2002 8:30,23.7,0,77.2,0,23.7,0,23.9,0,22.5,0,19.8,0,96.3,0
10/1/2002 8:45,23.8,0,77.7,0,23.7,0,23.8,0,22.5,0,20.1,0,96.1,0
10/1/2002 9:00,23.8,0,76.3,0,23.6,0,23.8,0,22.5,0,20.4,0,95.8,0
10/1/2002 9:15,23.8,0,76.2,0,23.6,0,23.8,0,22.6,0,20.5,0,95.6,0
10/1/2002 9:30,23.8,0,77.4,0,23.6,0,23.7,0,22.1,0,20.6,0,95.3,0
10/1/2002 9:45,23.9,0,79.5,0,23.6,0,23.7,0,22.1,0,20.7,0,95.1,0
10/1/2002 10:00,24,0,79.4,0,23.6,0,23.6,0,22.2,0,20.8,0,94.8,0
10/1/2002 10:15,23.9,0,79.3,0,23.6,0,23.6,0,22.4,0,20.8,0,94.6,0
10/1/2002 10:30,23.9,0,79.9,0,23.6,0,23.5,0,22.4,0,20.7,0,94.3,0
10/1/2002 10:45,23.8,0,79.6,0,23.6,0,23.5,0,22.4,0,20.7,0,94.1,0
10/1/2002 11:00,23.8,0,80,0,23.6,0,23.4,0,22.4,0,20.7,0,93.8,0
10/1/2002 11:15,23.7,0,80.1,0,23.6,0,23.3,0,22.4,0,20.7,0,94.3,0
10/1/2002 11:30,23.7,0,80.8,0,23.6,0,23.4,0,22.4,0,20.6,0,94.8,0
10/1/2002 11:45,23.6,0,81.4,0,23.6,0,23.4,0,22.4,0,20.6,0,95.3,0
10/1/2002 12:00,23.6,0,81.4,0,23.6,0,23.4,0,22.5,0,20.6,0,95.8,0
10/1/2002 12:15,23.6,0,81.8,0,23.6,0,23.4,0,22.5,0,20.6,0,95.8,0
10/1/2002 12:30,23.6,0,82.2,0,23.6,0,23.4,0,22.5,0,20.6,0,95.8,0
10/1/2002 12:45,23.5,0,83.2,0,23.6,0,23.5,0,22.5,0,20.7,0,95.8,0
10/1/2002 13:00,23.5,0,81.9,0,23.6,0,23.5,0,22.5,0,20.7,0,95.8,0
10/1/2002 13:15,23.5,0,82.3,0,23.6,0,23.5,0,22.5,0,20.7,0,95.3,0
10/1/2002 13:30,23.5,0,82.6,0,23.6,0,23.4,0,21.9,0,20.6,0,94.8,0
10/1/2002 13:45,23.7,0,82.5,0,23.6,0,23.3,0,21.9,0,20.6,0,94.3,0
10/1/2002 14:00,23.8,0,82.2,0,23.6,0,23.2,0,21.9,0,20.6,0,93.8,0
10/1/2002 14:15,23.9,0,82.1,0,23.6,0,23.3,0,22.2,0,20.5,0,94.1,0
10/1/2002 14:30,24,0,82.1,0,23.6,0,23.3,0,22.2,0,20.5,0,94.3,0
10/1/2002 14:45,24.1,0,82,0,23.5,0,23.3,0,22.2,0,20.4,0,94.6,0
10/1/2002 15:00,24,0,81.8,0,23.5,0,23.2,0,22.2,0,20.4,0,94.8,0
10/1/2002 15:15,24,0,81.4,0,23.5,0,23.2,0,22.2,0,20.4,0,95.3,0
10/1/2002 15:30,23.9,0,81,0,23.5,0,23.1,0,22.2,0,20.5,0,95.8,0
10/1/2002 15:45,23.8,0,80.7,0,23.5,0,23.1,0,22.3,0,20.5,0,96.3,0
10/1/2002 16:00,23.8,0,81.3,0,23.5,0,22.9,0,22.3,0,20.6,0,96.8,0
10/1/2002 16:15,23.8,0,80.6,0,23.4,0,22.8,0,22.3,0,21.6,0,96.1,0
10/1/2002 16:30,23.7,0,80.4,0,23.4,0,22.6,0,21.9,0,22.7,0,95.3,0
10/1/2002 16:45,23.7,0,81.1,0,23.4,0,22.6,0,22.4,0,23.7,0,94.6,0
10/1/2002 17:00,23.7,0,81.2,0,23.3,0,22.8,0,22.4,0,24.8,0,93.8,0
10/1/2002 17:15,23.8,0,82.6,0,23.3,0,22.9,0,22.4,0,24.9,0,93.3,0
10/1/2002 17:30,23.9,0,85.4,0,23.4,0,23.1,0,22.4,0,25,0,92.8,0
10/1/2002 17:45,24.1,0,86.8,0,23.4,0,23.1,0,22.4,0,25.1,0,92.3,0
10/1/2002 18:00,24.2,0,81.5,0,23.5,0,23.2,0,22,0,25.2,0,91.8,0
10/1/2002 18:15,24.3,0,86.9,0,23.5,0,23.4,0,22,0,25.4,0,89.8,0
10/1/2002 18:30,24.4,0,84.5,0,23.6,0,23.4,0,22,0,25.7,0,87.8,0
10/1/2002 18:45,24.5,0,83.7,0,23.6,0,23.5,0,22,0,25.9,0,85.8,0
10/1/2002 19:00,24.6,0,83.9,0,23.7,0,23.5,0,22.1,0,26.2,0,83.8,0
10/1/2002 19:15,24.7,0,81.3,0,23.7,0,23.6,0,22.1,0,25.5,0,85.1,0
10/1/2002 19:30,24.8,0,83.1,0,23.8,0,23.6,0,22.1,0,24.7,0,86.3,0
10/1/2002 19:45,24.9,0,81.5,0,23.8,0,23.7,0,22.1,0,24,0,87.6,0
10/1/2002 20:00,25,0,82.4,0,23.8,0,23.8,0,22.2,0,23.3,0,88.8,0
10/1/2002 20:15,25.3,0,82.6,0,23.8,0,23.8,0,22.2,0,23.4,0,89.1,0
10/1/2002 20:30,25.4,0,82.4,0,23.8,0,23.8,0,22.2,0,23.5,0,89.3,0
10/1/2002 20:45,25.5,0,82.1,0,23.8,0,23.9,0,22.2,0,23.6,0,89.6,0
10/1/2002 21:00,25.6,0,80.6,0,23.8,0,24,0,22.2,0,23.7,0,89.8,0
10/1/2002 21:15,25.7,0,78.2,0,23.9,0,24.1,0,22.1,0,23.6,0,88.1,0
10/1/2002 21:30,25.6,0,78.6,0,24,0,24.2,0,22.1,0,23.5,0,86.3,0
10/1/2002 21:45,25.5,0,79.1,0,24,0,24.3,0,22.1,0,23.5,0,84.6,0
10/1/2002 22:00,25.5,0,78.8,0,24.1,0,24.4,0,22.1,0,23.4,0,82.8,0
10/1/2002 22:15,25.4,0,78.9,0,24.1,0,24.4,0,22.1,0,23.2,0,82.8,0
10/1/2002 22:30,25.3,0,79.3,0,24.2,0,24.4,0,22.2,0,23,0,82.8,0
10/1/2002 22:45,25.3,0,79.2,0,24.2,0,24.4,0,22.2,0,22.9,0,82.8,0
10/1/2002 23:00,25.2,0,79.3,0,24.2,0,24.3,0,22.2,0,22.7,0,82.8,0
10/1/2002 23:15,25.2,0,79.9,0,24.2,0,24.3,0,22.2,0,22.7,0,81.6,0
10/1/2002 23:30,25.3,0,80,0,24.3,0,24.3,0,22.3,0,22.8,0,80.3,0
10/1/2002 23:45,25.3,0,80.3,0,24.3,0,24.3,0,22.3,0,22.8,0,79.1,0
10/2/2002 0:00,25.3,0,79,0,24.3,0,24.3,0,21.9,0,22.9,0,77.8,0
10/2/2002 0:15,25.2,0,78.8,0,24.4,0,24.2,0,22,0,22.9,0,77.1,0
10/2/2002 0:30,25.2,0,78.6,0,24.4,0,24.2,0,22,0,23,0,76.3,0
10/2/2002 0:45,25.1,0,78.5,0,24.5,0,24.2,0,22,0,23,0,75.6,0
10/2/2002 1:00,25,0,78.4,0,24.5,0,24.2,0,22,0,23.1,0,74.8,0
10/2/2002 1:15,24.9,0,78.4,0,24.6,0,24.2,0,22.1,0,23,0,75.1,0
10/2/2002 1:30,24.9,0,78.3,0,24.7,0,24.2,0,22.1,0,23,0,75.3,0
10/2/2002 1:45,24.8,0,78.3,0,24.7,0,24.2,0,22.1,0,22.9,0,75.6,0
10/2/2002 2:00,24.8,0,78.2,0,24.7,0,24.2,0,22.1,0,22.9,0,75.8,0
10/2/2002 2:15,24.7,0,78.2,0,24.8,0,24.2,0,22.2,0,22.8,0,77.1,0
10/2/2002 2:30,24.7,0,78.3,0,24.8,0,24.2,0,22.2,0,22.6,0,78.3,0
10/2/2002 2:45,24.6,0,78.3,0,24.8,0,24.1,0,22.2,0,22.5,0,79.6,0
10/2/2002 3:00,24.6,0,78.2,0,24.8,0,24.1,0,22.3,0,22.4,0,80.8,0
10/2/2002 3:15,24.5,0,78.2,0,24.8,0,24.1,0,22.3,0,22.4,0,80.1,0
10/2/2002 3:30,24.4,0,78.4,0,24.8,0,24.1,0,22.3,0,22.3,0,79.3,0
10/2/2002 3:45,24.4,0,78.2,0,24.8,0,24.1,0,22.3,0,22.3,0,78.6,0
10/2/2002 4:00,24.3,0,78.4,0,24.9,0,24.1,0,22.4,0,22.3,0,77.8,0
10/2/2002 4:15,24.3,0,78.3,0,24.9,0,24.1,0,22.4,0,22.2,0,77.8,0
10/2/2002 4:30,24.2,0,78.4,0,24.8,0,24.1,0,22.4,0,22.2,0,77.8,0
10/2/2002 4:45,24.2,0,78.4,0,24.8,0,24.1,0,22.4,0,22.1,0,77.8,0
10/2/2002 5:00,24.1,0,78.3,0,24.8,0,24,0,22.5,0,22.1,0,77.8,0
10/2/2002 5:15,24.1,0,78.4,0,24.8,0,24,0,22.5,0,22.1,0,77.8,0
10/2/2002 5:30,24,0,78.4,0,24.8,0,24,0,22.5,0,22.1,0,77.8,0
10/2/2002 5:45,24,0,78.3,0,24.8,0,24,0,22.5,0,22.2,0,77.8,0
10/2/2002 6:00,23.9,0,78.3,0,24.8,0,23.9,0,22.6,0,22.2,0,77.8,0
10/2/2002 6:15,23.9,0,78.4,0,24.8,0,24,0,21.8,0,22.4,0,77.1,0
10/2/2002 6:30,23.8,0,75.9,0,24.8,0,24.1,0,21.9,0,22.6,0,76.3,0
10/2/2002 6:45,24,0,74.5,0,24.9,0,24.2,0,21.9,0,22.8,0,75.6,0
10/2/2002 7:00,24.4,0,75.5,0,25,0,24.3,0,22.3,0,23,0,74.8,0
10/2/2002 7:15,24.8,0,75.8,0,25.1,0,24.5,0,22.3,0,23.2,0,74.6,0
10/2/2002 7:30,25.2,0,71.2,0,25.2,0,24.7,0,22.3,0,23.3,0,74.3,0
10/2/2002 7:45,25.6,0,71.4,0,25.4,0,25,0,22.3,0,23.5,0,74.1,0
10/2/2002 8:00,26,0,69.2,0,25.7,0,25.3,0,22.3,0,23.7,0,73.8,0
10/2/2002 8:15,26.4,0,67.2,0,25.9,0,25.6,0,22.3,0,23.9,0,72.3,0
10/2/2002 8:30,26.8,0,66.2,0,26.3,0,25.9,0,22.3,0,24.2,0,70.8,0
10/2/2002 8:45,27.1,0,62,0,26.6,0,26.1,0,22.3,0,24.4,0,69.3,0
10/2/2002 9:00,27.3,0,60.3,0,26.9,0,26.4,0,22.1,0,24.7,0,67.8,0
10/2/2002 9:15,27.5,0,58.9,0,27.1,0,26.7,0,22.1,0,25,0,67.1,0
10/2/2002 9:30,27.8,0,56.6,0,27.3,0,27,0,22,0,25.2,0,66.3,0
10/2/2002 9:45,27.9,0,55.7,0,27.5,0,27.2,0,22,0,25.5,0,65.6,0
10/2/2002 10:00,28.1,0,52.4,0,27.7,0,27.3,0,22,0,25.8,0,64.8,0
10/2/2002 10:15,28.2,0,51.1,0,27.8,0,27.4,0,22,0,25.9,0,63.8,0
10/2/2002 10:30,28.5,0,51.3,0,28,0,27.5,0,22.1,0,26,0,62.8,0
10/2/2002 10:45,28.5,0,50.9,0,28,0,27.6,0,22.1,0,26.2,0,61.8,0
10/2/2002 11:00,28.6,0,50.2,0,28.2,0,27.9,0,22.1,0,26.3,0,60.8,0
10/2/2002 11:15,28.5,0,48.5,0,28.2,0,28.1,0,22.1,0,26.7,0,59,0
10/2/2002 11:30,28.6,0,52,0,28.4,0,28.3,0,22.1,0,27.2,0,57.3,0
10/2/2002 11:45,28.6,0,50.7,0,28.6,0,28.4,0,22.2,0,27.6,0,55.5,0
10/2/2002 12:00,28.7,0,51.1,0,28.6,0,28.4,0,22.2,0,28.1,0,53.8,0
10/2/2002 12:15,28.7,0,50.5,0,28.6,0,28.5,0,22.2,0,28,0,55.3,0
10/2/2002 12:30,28.6,0,50.2,0,28.6,0,28.5,0,22.3,0,28,0,56.8,0
10/2/2002 12:45,28.6,0,51.7,0,28.6,0,28.5,0,22.3,0,27.9,0,58.3,0
10/2/2002 13:00,28.5,0,50.5,0,28.5,0,28.5,0,22.3,0,27.9,0,59.8,0
10/2/2002 13:15,28.3,0,52.5,0,28.4,0,28.4,0,22.4,0,27.7,0,59.5,0
10/2/2002 13:30,28.4,0,54.4,0,28.4,0,28.4,0,22.4,0,27.6,0,59.3,0
10/2/2002 13:45,28.4,0,54.9,0,28.4,0,28.4,0,22.5,0,27.4,0,59,0
10/2/2002 14:00,28.5,0,54.2,0,28.4,0,28.4,0,22.5,0,27.3,0,58.8,0
10/2/2002 14:15,28.5,0,55.7,0,28.4,0,28.4,0,22.6,0,27.2,0,58.8,0
10/2/2002 14:30,28.5,0,55.8,0,28.4,0,28.4,0,22.6,0,27,0,58.8,0
10/2/2002 14:45,28.4,0,54.9,0,28.3,0,28.4,0,22.6,0,26.9,0,58.8,0
10/2/2002 15:00,28.3,0,54.6,0,28.3,0,28.3,0,22.7,0,26.8,0,58.8,0
10/2/2002 15:15,28.3,0,54.8,0,28.3,0,28.3,0,22.7,0,26.6,0,58.8,0
10/2/2002 15:30,28.3,0,53.5,0,28.3,0,28.3,0,22.7,0,26.4,0,58.8,0
10/2/2002 15:45,28.1,0,53.5,0,28.2,0,28.2,0,22.8,0,26.3,0,58.8,0
10/2/2002 16:00,28.1,0,53.1,0,28,0,28.1,0,22.8,0,26.1,0,58.8,0
10/2/2002 16:15,28.1,0,55.4,0,27.9,0,28,0,22.9,0,25.8,0,60,0
10/2/2002 16:30,28,0,55.5,0,27.8,0,28,0,22.9,0,25.5,0,61.3,0
10/2/2002 16:45,27.9,0,54.6,0,27.6,0,27.9,0,22.9,0,25.3,0,62.5,0
10/2/2002 17:00,27.8,0,55.5,0,27.5,0,27.8,0,23,0,25,0,63.8,0
10/2/2002 17:15,27.7,0,56.2,0,27.4,0,27.7,0,23,0,24.9,0,63.8,0
10/2/2002 17:30,27.5,0,56.6,0,27.2,0,27.5,0,23.1,0,24.7,0,63.8,0
10/2/2002 17:45,27.3,0,57.4,0,27,0,27.4,0,23.1,0,24.6,0,63.8,0
10/2/2002 18:00,27.3,0,57.7,0,26.8,0,27.4,0,22.6,0,24.5,0,63.8,0
10/2/2002 18:15,27.3,0,59.4,0,26.6,0,27.5,0,22.6,0,24.5,0,63.3,0
10/2/2002 18:30,27.2,0,58.7,0,26.4,0,27.5,0,22.7,0,24.4,0,62.8,0
10/2/2002 18:45,27.2,0,59.3,0,26.3,0,27.5,0,22.7,0,24.4,0,62.3,0
10/2/2002 19:00,27.1,0,60.2,0,26.2,0,27.5,0,22.7,0,24.4,0,61.8,0
10/2/2002 19:15,27.1,0,61,0,26.1,0,27.6,0,22.8,0,24.3,0,62.3,0
10/2/2002 19:30,27,0,59.1,0,26,0,27.6,0,22.8,0,24.2,0,62.8,0
10/2/2002 19:45,27,0,60,0,26,0,27.5,0,22.7,0,24.1,0,63.3,0
10/2/2002 20:00,26.9,0,60.5,0,26,0,27.6,0,22.7,0,24,0,63.8,0
10/2/2002 20:15,27,0,63.2,0,26.1,0,27.5,0,22.5,0,24,0,63.8,0
10/2/2002 20:30,27,0,61.7,0,26.2,0,27.4,0,22.3,0,24,0,63.8,0
10/2/2002 20:45,27,0,62.3,0,26.2,0,27.4,0,22.2,0,24,0,63.8,0
10/2/2002 21:00,27,0,63.5,0,26.3,0,27.4,0,22.3,0,24,0,63.8,0
10/2/2002 21:15,27.1,0,64.2,0,26.3,0,27.4,0,22.3,0,23.7,0,65.8,0
10/2/2002 21:30,27.1,0,64.5,0,26.2,0,27.4,0,22.4,0,23.4,0,67.8,0
10/2/2002 21:45,27.1,0,64.9,0,26.2,0,27.4,0,22.4,0,23.2,0,69.8,0
10/2/2002 22:00,27,0,64.6,0,26.1,0,27.3,0,22.4,0,22.9,0,71.8,0
10/2/2002 22:15,27,0,64.8,0,26,0,27.3,0,22.4,0,22.9,0,72.1,0
10/2/2002 22:30,27,0,64.9,0,26,0,27.2,0,22.4,0,22.9,0,72.3,0
10/2/2002 22:45,27,0,65,0,26,0,27.2,0,22.5,0,23,0,72.6,0
10/2/2002 23:00,26.9,0,65,0,26,0,27.2,0,22.5,0,23,0,72.8,0
10/2/2002 23:15,26.9,0,64.9,0,25.9,0,27.1,0,22.6,0,23,0,72.6,0
10/2/2002 23:30,26.8,0,64.8,0,25.8,0,27.1,0,22.3,0,23.1,0,72.3,0
10/2/2002 23:45,26.8,0,65.1,0,25.8,0,27,0,22.3,0,23.1,0,72.1,0
10/3/2002 0:00,26.7,0,65.6,0,25.7,0,27,0,22.3,0,23.2,0,71.8,0
10/3/2002 0:15,26.6,0,64.6,0,25.6,0,26.9,0,22.4,0,23,0,73.6,0
10/3/2002 0:30,26.6,0,65.2,0,25.6,0,26.8,0,22.4,0,22.8,0,75.3,0
10/3/2002 0:45,26.6,0,65.8,0,25.6,0,26.8,0,22.4,0,22.6,0,77.1,0
10/3/2002 1:00,26.6,0,66.3,0,25.6,0,26.7,0,22.5,0,22.4,0,78.8,0
10/3/2002 1:15,26.6,0,66.3,0,25.6,0,26.7,0,22.5,0,22.2,0,80.6,0
10/3/2002 1:30,26.5,0,66.6,0,25.6,0,26.6,0,22.2,0,21.9,0,82.3,0
10/3/2002 1:45,26.4,0,63.6,0,25.6,0,26.5,0,22.2,0,21.7,0,84.1,0
10/3/2002 2:00,25.7,0,64.5,0,25.6,0,26.5,0,22.2,0,21.5,0,85.8,0
10/3/2002 2:15,25.4,0,65.5,0,25.6,0,26.4,0,22.3,0,21.4,0,86.3,0
10/3/2002 2:30,25.1,0,66.3,0,25.6,0,26.4,0,22.3,0,21.2,0,86.8,0
10/3/2002 2:45,25,0,66.2,0,25.7,0,26.3,0,22.3,0,21.1,0,87.3,0
10/3/2002 3:00,24.7,0,66,0,25.7,0,26.2,0,22.3,0,21,0,87.8,0
10/3/2002 3:15,24.5,0,66,0,25.7,0,26.1,0,22.4,0,20.8,0,87.6,0
10/3/2002 3:30,24.4,0,65.7,0,25.7,0,26.1,0,22.4,0,20.5,0,87.3,0
10/3/2002 3:45,24.2,0,65.8,0,25.7,0,26,0,22.4,0,20.3,0,87.1,0
10/3/2002 4:00,24.1,0,65.7,0,25.7,0,25.9,0,22.4,0,20.1,0,86.8,0
10/3/2002 4:15,24,0,65.8,0,25.7,0,25.8,0,22.5,0,20,0,86.6,0
10/3/2002 4:30,23.8,0,65.9,0,25.7,0,25.8,0,22.5,0,20,0,86.3,0
10/3/2002 4:45,23.7,0,66.2,0,25.7,0,25.7,0,22.5,0,19.9,0,86.1,0
10/3/2002 5:00,23.6,0,66.4,0,25.6,0,25.6,0,22.5,0,19.9,0,85.8,0
10/3/2002 5:15,23.7,0,67.1,0,25.6,0,25.5,0,22.5,0,19.9,0,86.3,0
10/3/2002 5:30,23.7,0,67.8,0,25.5,0,25.5,0,22.6,0,19.9,0,86.8,0
10/3/2002 5:45,23.7,0,68.4,0,25.5,0,25.5,0,22.6,0,19.9,0,87.3,0
10/3/2002 6:00,23.7,0,68,0,25.4,0,25.4,0,22.6,0,19.9,0,87.8,0
10/3/2002 6:15,23.7,0,66.9,0,25.4,0,25.2,0,22.6,0,20,0,86.3,0
10/3/2002 6:30,23.8,0,68.4,0,25.3,0,25,0,22.4,0,20.1,0,84.8,0
10/3/2002 6:45,23.9,0,68.8,0,25.2,0,24.9,0,22.4,0,20.3,0,83.3,0
10/3/2002 7:00,24.1,0,67.6,0,25.2,0,24.8,0,22.5,0,20.4,0,81.8,0
10/3/2002 7:15,24.3,0,68.3,0,25.3,0,24.9,0,22.5,0,20.8,0,80.1,0
10/3/2002 7:30,24.2,0,64.1,0,25.4,0,24.9,0,22.6,0,21.1,0,78.3,0
10/3/2002 7:45,24.2,0,64,0,25.4,0,24.9,0,22.6,0,21.5,0,76.6,0
10/3/2002 8:00,24.2,0,64.1,0,25.5,0,24.9,0,22.6,0,21.9,0,74.8,0
10/3/2002 8:15,24.2,0,63.9,0,25.6,0,24.9,0,22.6,0,22.1,0,73.8,0
10/3/2002 8:30,24.2,0,65.6,0,25.3,0,24.7,0,22.6,0,22.4,0,72.8,0
10/3/2002 8:45,24.2,0,65.6,0,25.1,0,24.6,0,22.3,0,22.6,0,71.8,0
10/3/2002 9:00,24.3,0,65.8,0,25.1,0,24.7,0,22.3,0,22.9,0,70.8,0
10/3/2002 9:15,24.6,0,65.4,0,25.3,0,24.9,0,21.9,0,22.9,0,69.8,0
10/3/2002 9:30,24.7,0,64.8,0,25.4,0,24.9,0,22,0,23,0,68.8,0
10/3/2002 9:45,24.8,0,64.2,0,25.4,0,25.1,0,22,0,23,0,67.8,0
10/3/2002 10:00,25,0,63,0,25.5,0,25.2,0,22,0,23.1,0,66.8,0
10/3/2002 10:15,25.3,0,62,0,25.7,0,25.4,0,22,0,23.2,0,66.1,0
10/3/2002 10:30,25.4,0,62,0,25.8,0,25.5,0,22,0,23.2,0,65.3,0
10/3/2002 10:45,25.5,0,60.1,0,25.9,0,25.6,0,22,0,23.3,0,64.6,0
10/3/2002 11:00,25.7,0,60.2,0,26.1,0,25.9,0,22,0,23.4,0,63.8,0
10/3/2002 11:15,25.8,0,58.1,0,26.3,0,26.2,0,22,0,23.6,0,62.8,0
10/3/2002 11:30,25.9,0,57.9,0,26.6,0,26.5,0,22.1,0,23.9,0,61.8,0
10/3/2002 11:45,26,0,57.3,0,26.7,0,26.7,0,22.1,0,24.1,0,60.8,0
10/3/2002 12:00,26.1,0,56.3,0,26.8,0,26.8,0,22.1,0,24.4,0,59.8,0
10/3/2002 12:15,26.2,0,56.5,0,26.9,0,26.9,0,22.1,0,24.7,0,59.3,0
10/3/2002 12:30,26.3,0,56.4,0,26.9,0,26.9,0,22.2,0,25,0,58.8,0
10/3/2002 12:45,26.4,0,55.6,0,27,0,26.9,0,22.2,0,25.3,0,58.3,0
10/3/2002 13:00,26.4,0,55.6,0,27,0,26.9,0,22.2,0,25.6,0,57.8,0
10/3/2002 13:15,26.5,0,56.9,0,27,0,27,0,22.3,0,25.5,0,57.5,0
10/3/2002 13:30,26.7,0,55.2,0,27.1,0,27,0,22.3,0,25.4,0,57.3,0
10/3/2002 13:45,26.7,0,57.7,0,27.2,0,27.1,0,22.5,0,25.3,0,57,0
10/3/2002 14:00,26.8,0,56.6,0,27.3,0,27.1,0,22.5,0,25.2,0,56.8,0
10/3/2002 14:15,26.8,0,57.1,0,27.3,0,27.1,0,22.5,0,25.2,0,57.3,0
10/3/2002 14:30,26.8,0,57.7,0,27.3,0,27.1,0,22.5,0,25.1,0,57.8,0
10/3/2002 14:45,26.8,0,58.4,0,27.3,0,27.1,0,22.6,0,25.1,0,58.3,0
10/3/2002 15:00,26.8,0,57.8,0,27.3,0,27.1,0,22.3,0,25.1,0,58.8,0
10/3/2002 15:15,26.8,0,59.1,0,27.3,0,27,0,22.4,0,25,0,61.8,0
10/3/2002 15:30,26.7,0,59.5,0,27.3,0,27,0,22.4,0,24.8,0,64.8,0
10/3/2002 15:45,26.7,0,59.6,0,27.3,0,26.9,0,22.4,0,24.7,0,67.8,0
10/3/2002 16:00,26.6,0,58.9,0,27.2,0,26.8,0,22.4,0,24.6,0,70.8,0
10/3/2002 16:15,26.5,0,58.2,0,27.1,0,26.7,0,22.4,0,24.7,0,69.1,0
10/3/2002 16:30,26.5,0,59,0,27.1,0,26.6,0,22.5,0,24.8,0,67.3,0
10/3/2002 16:45,26.4,0,60.6,0,27,0,26.5,0,22.5,0,24.9,0,65.6,0
10/3/2002 17:00,26.3,0,62.8,0,26.9,0,26.5,0,22.5,0,25,0,63.8,0
10/3/2002 17:15,26.3,0,62.5,0,26.9,0,26.5,0,22.6,0,24.8,0,65.8,0
10/3/2002 17:30,26.3,0,63.6,0,26.8,0,26.4,0,22.6,0,24.7,0,67.8,0
10/3/2002 17:45,26.3,0,65.2,0,26.8,0,26.3,0,22.6,0,24.5,0,69.8,0
10/3/2002 18:00,26.4,0,65.1,0,26.7,0,26.3,0,22.6,0,24.4,0,71.8,0
10/3/2002 18:15,26.5,0,70.5,0,26.7,0,26.4,0,22.6,0,24.3,0,71.6,0
10/3/2002 18:30,26.7,0,69.4,0,26.7,0,26.4,0,22.7,0,24.3,0,71.3,0
10/3/2002 18:45,26.8,0,70.5,0,26.7,0,26.4,0,22.7,0,24.2,0,71.1,0
10/3/2002 19:00,26.9,0,72.3,0,26.7,0,26.4,0,22.7,0,24.2,0,70.8,0
10/3/2002 19:15,27.1,0,74.5,0,26.6,0,26.4,0,22.8,0,24,0,70.8,0
10/3/2002 19:30,27.3,0,75.1,0,26.6,0,26.3,0,22.8,0,23.9,0,70.8,0
10/3/2002 19:45,27.2,0,69.7,0,26.6,0,26.4,0,22.8,0,23.7,0,70.8,0
10/3/2002 20:00,27.1,0,68.9,0,26.6,0,26.4,0,22.9,0,23.6,0,70.8,0
10/3/2002 20:15,27.1,0,68.9,0,26.6,0,26.5,0,22.9,0,23.5,0,71.1,0
10/3/2002 20:30,27.1,0,71.2,0,26.6,0,26.6,0,22.9,0,23.3,0,71.3,0
10/3/2002 20:45,27.1,0,69.8,0,26.6,0,26.6,0,23,0,23.2,0,71.6,0
10/3/2002 21:00,27.1,0,70.2,0,26.6,0,26.6,0,23,0,23.1,0,71.8,0
10/3/2002 21:15,27.1,0,69.4,0,26.7,0,26.7,0,23,0,23.1,0,71.8,0
10/3/2002 21:30,27,0,69.3,0,26.6,0,26.7,0,23.1,0,23.1,0,71.8,0
10/3/2002 21:45,27,0,68.9,0,26.5,0,26.7,0,23.1,0,23.2,0,71.8,0
10/3/2002 22:00,27,0,69.9,0,26.4,0,26.8,0,23.1,0,23.2,0,71.8,0
10/3/2002 22:15,27,0,70,0,26.3,0,26.8,0,22.7,0,23.1,0,71.8,0
10/3/2002 22:30,27,0,70.4,0,26.2,0,26.8,0,22.7,0,23.1,0,71.8,0
10/3/2002 22:45,27.1,0,71.7,0,26.1,0,26.7,0,22.7,0,23,0,71.8,0
10/3/2002 23:00,27.1,0,71.7,0,26,0,26.7,0,22.8,0,23,0,71.8,0
10/3/2002 23:15,27.1,0,72.1,0,25.9,0,26.7,0,22.8,0,22.9,0,71.8,0
10/3/2002 23:30,27,0,68.9,0,25.8,0,26.9,0,22.4,0,22.8,0,71.8,0
10/3/2002 23:45,26.9,0,68.6,0,25.7,0,26.9,0,22.2,0,22.8,0,71.8,0
10/4/2002 0:00,26.8,0,69,0,25.7,0,26.9,0,22.3,0,22.7,0,71.8,0
10/4/2002 0:15,26.8,0,69.1,0,25.7,0,26.8,0,22.3,0,22.5,0,72.3,0
10/4/2002 0:30,26.7,0,69.4,0,25.6,0,26.7,0,22.3,0,22.4,0,72.8,0
10/4/2002 0:45,26.7,0,67.7,0,25.5,0,26.6,0,22.4,0,22.2,0,73.3,0
10/4/2002 1:00,26.6,0,68.1,0,25.4,0,26.5,0,22.4,0,22.1,0,73.8,0
10/4/2002 1:15,26.4,0,67.6,0,25.4,0,26.4,0,22.3,0,22,0,76.3,0
10/4/2002 1:30,26.3,0,67.8,0,25.4,0,26.3,0,22.3,0,21.8,0,78.8,0
10/4/2002 1:45,26.1,0,67.8,0,25.4,0,26.2,0,22.3,0,21.7,0,81.3,0
10/4/2002 2:00,26,0,68,0,25.4,0,26.1,0,22.3,0,21.6,0,83.8,0
10/4/2002 2:15,25.8,0,68.1,0,25.4,0,26,0,22.4,0,21.5,0,83.6,0
10/4/2002 2:30,25.7,0,68.2,0,25.5,0,26,0,22.4,0,21.4,0,83.3,0
10/4/2002 2:45,25.6,0,68.3,0,25.5,0,25.9,0,22.4,0,21.3,0,83.1,0
10/4/2002 3:00,25.4,0,68.3,0,25.5,0,25.8,0,22.5,0,21.2,0,82.8,0
10/4/2002 3:15,25.4,0,68.3,0,25.6,0,25.7,0,22.5,0,21,0,82.6,0
10/4/2002 3:30,25.2,0,68.3,0,25.6,0,25.6,0,22.5,0,20.8,0,82.3,0
10/4/2002 3:45,25.1,0,68.4,0,25.6,0,25.6,0,22.6,0,20.7,0,82.1,0
10/4/2002 4:00,25,0,68.5,0,25.6,0,25.5,0,22.6,0,20.5,0,81.8,0
10/4/2002 4:15,24.9,0,68.6,0,25.6,0,25.4,0,22.6,0,20.5,0,82.6,0
10/4/2002 4:30,24.8,0,68.7,0,25.6,0,25.3,0,22.6,0,20.4,0,83.3,0
10/4/2002 4:45,24.7,0,68.8,0,25.5,0,25.3,0,22.7,0,20.4,0,84.1,0
10/4/2002 5:00,24.7,0,68.6,0,25.5,0,25.2,0,22.7,0,20.4,0,84.8,0
10/4/2002 5:15,24.6,0,68.7,0,25.5,0,25.1,0,22.7,0,20.3,0,85.3,0
10/4/2002 5:30,24.5,0,68.7,0,25.5,0,25,0,22.7,0,20.3,0,85.8,0
10/4/2002 5:45,24.4,0,69.6,0,25.4,0,25,0,22.8,0,20.2,0,86.3,0
10/4/2002 6:00,24.4,0,69,0,25.4,0,24.9,0,22.3,0,20.2,0,86.8,0
10/4/2002 6:15,24.4,0,70.9,0,25.3,0,24.8,0,22.3,0,20.5,0,85.6,0
10/4/2002 6:30,24.3,0,69.9,0,25.2,0,24.7,0,22.3,0,20.7,0,84.3,0
10/4/2002 6:45,24.4,0,69.9,0,25.2,0,24.7,0,22.3,0,21,0,83.1,0
10/4/2002 7:00,24.6,0,69.6,0,25.2,0,24.7,0,22.3,0,21.3,0,81.8,0
10/4/2002 7:15,24.7,0,69.8,0,25.2,0,24.7,0,22.4,0,21.6,0,80.8,0
10/4/2002 7:30,25,0,68.8,0,25.2,0,24.7,0,22.4,0,21.9,0,79.8,0
10/4/2002 7:45,25.3,0,67.4,0,25.4,0,24.9,0,22.4,0,22.2,0,78.8,0
10/4/2002 8:00,25.4,0,65.3,0,25.5,0,25.1,0,22.5,0,22.5,0,77.8,0
10/4/2002 8:15,25.5,0,64.4,0,25.7,0,25.3,0,22.5,0,22.9,0,76.3,0
10/4/2002 8:30,25.7,0,63.2,0,25.9,0,25.5,0,22.5,0,23.2,0,74.8,0
10/4/2002 8:45,25.8,0,63.7,0,26.1,0,25.6,0,22.6,0,23.6,0,73.3,0
10/4/2002 9:00,25.9,0,62.8,0,26.3,0,25.9,0,22.4,0,24,0,71.8,0
10/4/2002 9:15,26.1,0,62.3,0,26.5,0,26.1,0,22.2,0,24.3,0,69.1,0
10/4/2002 9:30,26.2,0,61.7,0,26.8,0,26.3,0,22.2,0,24.6,0,66.3,0
10/4/2002 9:45,26.3,0,61.4,0,26.9,0,26.5,0,22.1,0,24.9,0,63.6,0
10/4/2002 10:00,26.7,0,61.5,0,27.1,0,26.5,0,22.1,0,25.2,0,60.8,0
10/4/2002 10:15,26.8,0,59,0,27.2,0,26.6,0,22.1,0,25.2,0,60.8,0
10/4/2002 10:30,26.9,0,59.1,0,27.3,0,26.7,0,22.1,0,25.2,0,60.8,0
10/4/2002 10:45,27,0,57.7,0,27.5,0,27,0,22.5,0,25.2,0,60.8,0
10/4/2002 11:00,27.1,0,58.4,0,27.6,0,27.2,0,22.5,0,25.2,0,60.8,0
10/4/2002 11:15,27.2,0,58.4,0,27.7,0,27.4,0,22.5,0,25.4,0,59,0
10/4/2002 11:30,27.2,0,58.5,0,27.8,0,27.7,0,22.5,0,25.6,0,57.3,0
10/4/2002 11:45,27.3,0,56.5,0,28,0,27.9,0,22.5,0,25.8,0,55.5,0
10/4/2002 12:00,27.3,0,57.1,0,28.1,0,28.1,0,22.5,0,26,0,53.8,0
10/4/2002 12:15,27.4,0,56.7,0,28.2,0,28.2,0,22.6,0,26.1,0,54,0
10/4/2002 12:30,27.5,0,56,0,28.3,0,28.3,0,22.6,0,26.2,0,54.3,0
10/4/2002 12:45,27.5,0,56.7,0,28.3,0,28.4,0,22.6,0,26.3,0,54.5,0
10/4/2002 13:00,27.6,0,54.7,0,28.4,0,28.4,0,22.7,0,26.4,0,54.8,0
10/4/2002 13:15,27.6,0,42.7,0,28.4,0,28.4,0,22.7,0,26.4,0,56,0
10/4/2002 13:30,27.8,0,41.1,0,28.4,0,28.3,0,22.3,0,26.3,0,57.3,0
10/4/2002 13:45,28,0,45.7,0,28.4,0,28.3,0,22.3,0,26.3,0,58.5,0
10/4/2002 14:00,28,0,46.1,0,28.5,0,28.3,0,22.3,0,26.3,0,59.8,0
10/4/2002 14:15,28,0,47.2,0,28.5,0,28.3,0,22.4,0,26.4,0,58.5,0
10/4/2002 14:30,28,0,47.5,0,28.5,0,28.3,0,22.4,0,26.5,0,57.3,0
10/4/2002 14:45,28,0,48.3,0,28.5,0,28.4,0,22.5,0,26.7,0,56,0
10/4/2002 15:00,28.1,0,47.3,0,28.5,0,28.4,0,22.7,0,26.8,0,54.8,0
10/4/2002 15:15,28,0,49.4,0,28.5,0,28.4,0,22.7,0,26.7,0,55.8,0
10/4/2002 15:30,28,0,49.2,0,28.5,0,28.4,0,22.7,0,26.6,0,56.8,0
10/4/2002 15:45,28,0,51.3,0,28.5,0,28.4,0,22.8,0,26.5,0,57.8,0
10/4/2002 16:00,27.9,0,51.9,0,28.5,0,28.3,0,22.8,0,26.4,0,58.8,0
10/4/2002 16:15,27.8,0,52.8,0,28.4,0,28.3,0,22.8,0,26.3,0,60.3,0
10/4/2002 16:30,27.8,0,53.7,0,28.3,0,28.2,0,22.8,0,26.1,0,61.8,0
10/4/2002 16:45,27.7,0,51.4,0,28.2,0,28.1,0,22.9,0,26,0,63.3,0
10/4/2002 17:00,27.5,0,48.9,0,28.1,0,28,0,22.9,0,25.9,0,64.8,0
10/4/2002 17:15,27.4,0,53,0,27.9,0,27.9,0,22.9,0,25.8,0,65.6,0
10/4/2002 17:30,27.4,0,53.3,0,27.7,0,27.9,0,23,0,25.8,0,66.3,0
10/4/2002 17:45,27.3,0,53.3,0,27.6,0,27.8,0,23,0,25.7,0,67.1,0
10/4/2002 18:00,27.3,0,56.1,0,27.5,0,27.8,0,23.1,0,25.7,0,67.8,0
10/4/2002 18:15,27.2,0,56.4,0,27.4,0,27.8,0,23.1,0,25.5,0,69.1,0
10/4/2002 18:30,27.2,0,57.9,0,27.3,0,27.7,0,23.2,0,25.3,0,70.3,0
10/4/2002 18:45,27.3,0,60.6,0,27.2,0,27.6,0,23.2,0,25.1,0,71.6,0
10/4/2002 19:00,27.4,0,62,0,27.2,0,27.6,0,23.2,0,24.9,0,72.8,0
10/4/2002 19:15,27,0,60.2,0,27.2,0,27.7,0,23.3,0,24.7,0,73.6,0
10/4/2002 19:30,27.1,0,60.1,0,27.1,0,27.8,0,23.3,0,24.5,0,74.3,0
10/4/2002 19:45,27.2,0,61.8,0,27,0,27.8,0,23.4,0,24.4,0,75.1,0
10/4/2002 20:00,27.2,0,61.7,0,27,0,27.8,0,23.4,0,24.2,0,75.8,0